Powrót do katalogu

ATLAS 5 CENTAUR DEB

LostHEO
NORAD 53518·DEBRIS·🇺🇸 United States

Wystrzelony Oct 17, 2018 z Cape Canaveral Space Force Station

Loading…

Następne Przeloty (najbliższe 24 godziny)

TLE

NieaktualneSource: Space-Track

Epoka: May 7, 2024, 02:29 UTC

1 53518U 18079GZ  24128.10407646 -.00000064  00000-0  00000+0 0  9992
2 53518  12.0562  96.5662 4464999 209.6100 115.2714  1.92987156 17611

Śledź ATLAS 5 CENTAUR DEB w czasie rzeczywistym z AllMySat

Download on the App Store